www.pogodaiklimat.ru
ПОГОДА на Капо Беллависто
Время
(UTC), дата
07 8.10
08 8.10
09 8.10
10 8.10
11 8.10
12 8.10
13 8.10
14 8.10
15 8.10
16 8.10
17 8.10
18 8.10
19 8.10
20 8.10
21 8.10
22 8.10
23 8.10
00 9.10
01 9.10
02 9.10
03 9.10
04 9.10
05 9.10
06 9.10
07 9.10
08 9.10
09 9.10
10 9.10
11 9.10
12 9.10
13 9.10
14 9.10
15 9.10
16 9.10
17 9.10
18 9.10
19 9.10
20 9.10
21 9.10
22 9.10
23 9.10
00 10.10
01 10.10
02 10.10
03 10.10
04 10.10
05 10.10
06 10.10
07 10.10
08 10.10
09 10.10
10 10.10
11 10.10
12 10.10
13 10.10
14 10.10
15 10.10
16 10.10
17 10.10
18 10.10
19 10.10
20 10.10
21 10.10
22 10.10
23 10.10
00 11.10
01 11.10
02 11.10
03 11.10
04 11.10
05 11.10
06 11.10
07 11.10
08 11.10
09 11.10
10 11.10
11 11.10
12 11.10
13 11.10
14 11.10
15 11.10
16 11.10
17 11.10
18 11.10
19 11.10
20 11.10
21 11.10
22 11.10
23 11.10
00 12.10
01 12.10
02 12.10
03 12.10
04 12.10
05 12.10
06 12.10
07 12.10
08 12.10
09 12.10
10 12.10
11 12.10
12 12.10
13 12.10
14 12.10
15 12.10
16 12.10
17 12.10
18 12.10
19 12.10
20 12.10
21 12.10
22 12.10
23 12.10
00 13.10
01 13.10
02 13.10
03 13.10
04 13.10
05 13.10
06 13.10
07 13.10
08 13.10
09 13.10
10 13.10
11 13.10
12 13.10
13 13.10
14 13.10
15 13.10
16 13.10
17 13.10
18 13.10
19 13.10
20 13.10
21 13.10
22 13.10
23 13.10
00 14.10
01 14.10
02 14.10
03 14.10
04 14.10
05 14.10
06 14.10
07 14.10
08 14.10
09 14.10
10 14.10
11 14.10
12 14.10
13 14.10
14 14.10
15 14.10
16 14.10
17 14.10
18 14.10
19 14.10
20 14.10
21 14.10
22 14.10
23 14.10
00 15.10
01 15.10
02 15.10
03 15.10
04 15.10
05 15.10
06 15.10
Ветер
(напр.,м/с)
Видим. Явления Облачность Т
(С)
Тd
(С)
f
(%)
Тe
(С)
Тes
(С)
Комфортность P
(гПа)
Po
(гПа)
Тmin
(С)
Tmax
(С)
R
(мм)
R24
(мм)
S
(см)
СВ 14 30 км ясно +19.0 +9.8 55 +18 +18 тепло 1015.3 997.8
СВ 14 30 км ясно +19.6 +10.5 56 +20 +20 тепло 1016.4 998.8
СВ 11 20 км ясно +20.2 +10.9 55 +21 +21 комфорт 1016.5 999.0
В 8 30 км ясно +21.0 +11.1 53 +23 +25 комфорт 1016.8 999.4
В 10 30 км ясно +21.2 +12.5 58 +23 +24 комфорт 1017.3 999.8
В 9 20 км ясно +21.0 +12.4 58 +23 +24 комфорт 1017.3 999.8
В 10 30 км ясно +51.0 +37.9 51 +105 +105 опасность
перегрева
1015.2 999.3
В 10 30 км ясно +20.4 +12.3 60 +22 +22 комфорт 1016.5 999.0
В 9 20 км ясно +20.4 +11.9 58 +22 +22 комфорт 1016.4 998.9
В 8 30 км ясно +20.4 +11.9 58 +22 +22 комфорт 1016.4 998.9
В 6 30 км ясно +20.0 +12.9 64 +22 +22 комфорт 1016.6 999.1
СВ 5 20 км ясно +19.0 +13.6 71 +20 +20 тепло 1017.4 999.8 +21.4
СЗ 5 20 км ясно +18.8 +13.3 70 +19 +19 тепло 1017.7 1000.1
СЗ 6 20 км ясно +17.8 +12.6 72 +17 +17 тепло 1018.4 1000.7
СЗ 7 20 км ясно +17.0 +11.7 71 +16 +16 тепло 1018.6 1000.9
СЗ 5 20 км ясно +17.2 +11.9 71 +17 +17 тепло 1018.7 1000.9
СЗ 6 20 км ясно +16.6 +10.8 69 +16 +16 тепло 1018.7 1000.9
СЗ 3 20 км ясно +16.8 +10.3 65 +17 +17 тепло 1018.6 1000.9
СЗ 7 20 км ясно +16.6 +10.8 69 +15 +15 тепло 1018.6 1000.8
СЗ 6 20 км ясно +15.8 +9.1 64 +14 +14 тепло 1018.4 1000.6
СЗ 3 20 км ясно +16.8 +9.1 60 +17 +17 тепло 1017.8 1000.1
СЗ 4 20 км ясно +16.0 +9.4 65 +15 +15 тепло 1017.9 1000.1
СЗ 4 20 км ясно +16.2 +8.0 58 +16 +16 тепло 1017.8 1000.0
З 3 20 км ясно +18.0 +10.6 62 +18 +18 тепло 1017.8 1000.1 +15.8
З 3 30 км ясно +16.8 +9.1 60 +17 +18 тепло 1017.9 1000.1
ЮЗ 2 30 км ясно +19.0 +13.4 70 +21 +24 комфорт 1018.0 1000.4
Ю 2 20 км ясно +23.0 +15.3 62 +27 +33 душно 1018.0 1000.6
ЮВ 2 30 км ясно +24.8 +15.4 56 +28 +37 жарко 1018.1 1000.8
Ю 2 30 км ясно +25.0 +14.2 51 +27 +37 жарко 1018.0 1000.8
Ю 3 20 км ясно +24.8 +13.7 50 +27 +36 жарко 1018.1 1000.8
ЮВ 2 30 км ясно +25.0 +11.9 44 +27 +35 жарко 1017.3 1000.0
Ю 2 20 км ясно +23.8 +14.5 56 +26 +32 жарко 1016.9 999.6
Ю 2 20 км ясно +24.6 +13.5 50 +27 +30 жарко 1016.7 999.4
Ю 3 30 км ясно +24.8 +14.3 52 +27 +28 жарко 1016.2 998.9
ЮЗ 4 25 км ясно +20.8 +15.1 70 +24 +24 комфорт 1016.1 998.6
ЮЗ 5 20 км ясно +20.4 +14.7 70 +23 +23 комфорт 1016.2 998.7 +25.8
З 5 20 км ясно +18.8 +14.7 77 +20 +20 тепло 1016.5 998.9
СЗ 3 20 км ясно +18.8 +14.5 76 +20 +20 тепло 1016.6 999.0
С 3 20 км ясно +18.2 +14.3 78 +19 +19 тепло 1016.9 999.2
СВ 3 20 км ясно +18.8 +15.5 81 +20 +20 тепло 1017.3 999.6
СВ 4 20 км ясно +18.8 +14.9 78 +20 +20 тепло 1017.3 999.7
С 3 20 км ясно +18.6 +13.0 70 +20 +20 тепло 1017.3 999.6
СЗ 4 20 км ясно +18.6 +12.6 68 +19 +19 тепло 1017.3 999.7
СЗ 3 20 км ясно +18.4 +12.4 68 +19 +19 тепло 1017.3 999.7
З 3 20 км ясно +18.6 +13.0 70 +20 +20 тепло 1017.3 999.6
СЗ 4 20 км ясно +18.6 +11.9 65 +19 +19 тепло 1017.3 999.7
З 3 20 км ясно +18.0 +7.4 50 +18 +18 тепло 1016.6 998.9
З 5 20 км ясно +17.8 +6.0 46 +17 +17 тепло 1016.4 998.7 +16.8
З 4 30 км ясно +19.2 +9.7 54 +20 +21 тепло 1016.2 998.6
ЮЗ 4 30 км ясно +20.4 +10.5 53 +22 +24 комфорт 1016.5 999.0
Ю 5 20 км ясно +22.4 +11.5 50 +25 +28 комфорт 1016.5 999.1
Ю 2 30 км ясно +25.0 +15.1 54 +28 +36 жарко 1016.5 999.3
З 3 30 км 1/1 1200 м
[Cu hum]
+27.0 +16.6 53 +31 +38 душно 1016.6 999.4
Ю 3 20 км 1/1 1200 м
[Cu hum]
+27.0 +15.7 50 +30 +37 душно 1016.4 999.3
ЮВ 2 30 км 1/1 1200 м
[Cu hum]
+25.8 +16.9 58 +30 +36 душно 1016.2 999.0
Ю 3 30 км 1/1 1200 м
[Cu hum]
+25.6 +16.7 58 +29 +33 душно 1016.2 999.0
Ю 5 20 км ясно +26.6 +16.8 55 +30 +32 душно 1016.1 999.0
ЮЗ 5 30 км ясно +24.6 +16.8 62 +28 +29 душно 1015.7 998.5
ЮЗ 6 30 км ясно +22.0 +17.4 75 +26 +26 душно 1016.0 998.6
ЮЗ 5 20 км ясно +20.8 +18.0 84 +25 +25 комфорт 1016.5 999.0 +26.4
СЗ 3 20 км ясно +20.6 +17.4 82 +24 +24 комфорт 1016.5 999.0
СЗ 6 20 км ясно +18.6 +13.0 70 +19 +19 тепло 1017.3 999.7
С 5 20 км ясно +18.8 +4.2 38 +19 +19 тепло 1017.9 1000.2
СЗ 5 20 км ясно +19.8 +1.8 30 +20 +20 тепло 1018.6 1001.0
СЗ 6 20 км ясно +18.6 -0.7 27 +18 +18 тепло 1018.7 1001.0
СЗ 6 20 км ясно +19.0 -0.9 26 +19 +19 тепло 1018.6 1001.0
СЗ 5 20 км ясно +19.0 -2.6 23 +19 +19 тепло 1018.7 1001.1
З 4 20 км ясно +18.8 -3.3 22 +19 +19 тепло 1018.6 1001.0
СЗ 5 20 км ясно +18.8 -3.3 22 +19 +19 тепло 1018.8 1001.2
В 2 20 км ясно +18.2 +0.4 30 +19 +19 тепло 1019.0 1001.3
ЮВ 2 20 км ясно +17.6 +3.9 40 +18 +18 тепло 1019.3 1001.6
З 3 20 км ясно +17.6 +0.7 32 +18 +18 тепло 1019.9 1002.1 +17.4
З 3 30 км ясно +16.6 +3.7 42 +16 +17 тепло 1020.4 1002.6
СЗ 2 30 км ясно +19.6 +8.4 48 +21 +25 комфорт 1020.8 1003.2
ЮЗ 3 20 км ясно +22.6 +11.1 48 +25 +30 комфорт 1021.4 1004.0
ЮВ 5 30 км ясно +30.0 +14.1 38 +32 +37 жарко 1021.0 1004.0
ЮВ 5 30 км ясно +30.4 +14.3 38 +32 +38 жарко 1021.2 1004.2
ЮВ 4 20 км ясно +30.6 +15.3 40 +33 +39 душно 1021.2 1004.2
ЮВ 5 30 км ясно +30.0 +16.7 45 +34 +38 очень
душно
1020.9 1003.9
Ю 3 30 км ясно +28.0 +17.4 53 +32 +36 душно 1021.1 1004.0
Ю 4 20 км ясно +29.8 +17.6 48 +34 +36 очень
душно
1021.0 1004.0
Ю 3 30 км ясно +28.6 +19.2 57 +34 +35 очень
душно
1020.9 1003.8
Ю 3 30 км 3/3 600 м
[St]
+26.0 +21.0 74 +33 +33 очень
душно
1021.1 1003.9
ЮЗ 3 20 км 1/1 600 м
[St]
+24.8 +21.4 81 +31 +31 очень
душно
1021.3 1004.0 +30.8
З 2 30 км 1/1 600 м
[St]
+24.0 +20.9 83 +30 +30 очень
душно
1021.2 1003.8
СЗ 5 30 км 1/1 600 м
[St]
+17.8 +15.0 84 +17 +17 тепло 1021.6 1003.9
СЗ 4 30 км ясно +17.6 +14.4 82 +17 +17 тепло 1021.9 1004.1
З 3 30 км ясно +17.4 +14.2 81 +17 +17 тепло 1021.8 1004.0
СЗ 4 30 км ясно +16.8 +13.6 81 +16 +16 тепло 1021.9 1004.1
СЗ 5 20 км 3/3 600 м
[St]
+16.8 +13.6 81 +16 +16 тепло 1021.9 1004.1
СЗ 5 30 км ясно +16.8 +13.6 81 +16 +16 тепло 1021.8 1004.0
СЗ 5 30 км ясно +16.8 +13.6 81 +16 +16 тепло 1021.9 1004.1
СЗ 4 30 км ясно +16.8 +13.6 81 +16 +16 тепло 1021.9 1004.1
СЗ 5 30 км ясно +16.8 +13.2 79 +16 +16 тепло 1021.8 1004.0
СЗ 5 30 км 1/1 750 м
[Cu med, cong]
+16.4 +13.0 80 +15 +15 тепло 1022.0 1004.1
СЗ 4 20 км 3/3 750 м
[Cu med, cong]
+16.8 +13.6 81 +16 +16 тепло 1021.9 1004.1 +16.4
СЗ 4 30 км 1/1 750 м
[Cu med, cong]
+16.8 +13.2 79 +16 +17 тепло 1021.8 1004.0
СЗ 3 30 км 4/4 750 м
[Cu med, cong]
+19.2 +14.7 75 +21 +22 комфорт 1022.4 1004.7
В 2 20 км 3/0 1050 м
[]
+22.0 +17.2 74 +26 +31 душно 1022.3 1004.8
ЮВ 2 30 км 3/3 1050 м
[Cu med, cong]
+25.2 +16.9 60 +29 +35 душно 1022.3 1005.0
ЮВ 3 30 км 3/1 900 м
[Cu med, cong Ci fib]
+25.8 +16.7 57 +29 +36 душно 1022.3 1005.0
З 3 20 км 3/1 900 м
[Cu med, cong Ci fib]
+25.4 +16.5 58 +29 +36 душно 1022.3 1005.0
Ю 2 30 км 5/1 900 м
[Cu med, cong Ci fib]
+24.4 +16.1 60 +28 +34 душно 1021.4 1004.0
СЗ 2 30 км 5/1 900 м
[Cu med, cong Ci fib]
+24.0 +16.5 63 +27 +32 жарко 1021.4 1004.0
В 3 20 км 4/3 900 м
[Cu Sc Cs]
+23.2 +17.0 68 +28 +30 душно 1021.5 1004.0
Ю 2 30 км 5/1 750 м
[Cu med, cong As trans Ci fib]
+21.8 +17.6 77 +26 +27 душно 1021.5 1004.0
ЮВ 2 30 км 1/1 750 м
[St Ci fib]
+20.4 +18.4 88 +25 +25 комфорт 1021.6 1004.0
ЮВ 2 20 км 5/5 1200 м
[Cu med, cong]
+20.0 +18.7 92 +24 +24 комфорт 1021.6 1004.0 +25.8
З 2 20 км 8/8 1200 м
[Cu med, cong]
+19.8 +18.1 90 +23 +23 комфорт 1021.7 1004.0
СЗ 5 20 км 6/3 1200 м
[Cu med, cong Cc]
+18.8 +17.8 94 +20 +20 тепло 1021.7 1004.0
СЗ 7 20 км 4/4 1200 м
[Cu med, cong]
+18.4 +16.7 90 +18 +18 тепло 1021.7 1004.0
СЗ 6 20 км 3/3 1200 м
[Cu med, cong]
+18.2 +16.7 91 +18 +18 тепло 1021.8 1004.0
СЗ 4 20 км ясно +18.2 +16.2 88 +18 +18 тепло 1021.8 1004.0
СЗ 5 20 км ясно +18.0 +16.3 90 +18 +18 тепло 1021.8 1004.0
СЗ 5 20 км 3/3 1200 м
[Cu med, cong]
+17.8 +13.9 78 +17 +17 тепло 1021.8 1004.0
СЗ 5 20 км 1/0
[Ac lent]
+17.6 +13.5 77 +17 +17 тепло 1021.7 1003.9
СЗ 5 20 км 8/0 2000 м
[Ac und]
+17.2 +13.9 81 +17 +17 тепло 1020.8 1003.0
СЗ 6 20 км 8/0
[Ac lent]
+17.2 +13.5 79 +16 +16 тепло 1020.8 1003.0
СЗ 6 20 км 4/1 1200 м
[Cu med, cong Ac lent]
+17.4 +12.9 75 +17 +17 тепло 1020.8 1003.0
СЗ 5 20 км 5/4 750 м
[Cu med, cong Ac trans]
+17.6 +13.1 75 +17 +17 тепло 1020.8 1003.0 +17.0
СЗ 5 25 км 6/3 750 м
[St Ac lent Cc]
+18.0 +12.7 71 +18 +18 тепло 1020.7 1003.0
СЗ 3 25 км 8/5 900 м
[Cu med, cong As trans]
+19.2 +13.1 68 +21 +21 комфорт 1020.8 1003.2
ЮЗ 1 20 км 9/5 900 м
[Cu med, cong As trans]
+21.8 +16.7 73 +26 +28 душно 1021.4 1003.9
З 2 30 км 8/3 900 м
[Cu med, cong Ac As]
+24.2 +18.0 68 +28 +31 душно 1021.4 1004.0
Ю 2 30 км 8/4 900 м
[Cu med, cong As trans]
+24.2 +18.4 70 +29 +32 душно 1021.3 1003.9
Ю 3 20 км 8/4 900 м
[Cu med, cong As trans]
+25.4 +18.7 66 +30 +33 душно 1020.8 1003.5
Ю 2 25 км 9/5 750 м
[Cu Sc As trans]
+26.0 +18.4 63 +31 +33 очень
душно
1020.3 1003.0
ЮВ 4 25 км 9/5 750 м
[Cu med, cong As trans]
+23.8 +19.8 78 +29 +30 душно 1020.0 1002.6
ЮВ 3 20 км 10/6 600 м
[Cu Sc As op]
+23.4 +20.9 86 +31 +31 очень
душно
1019.7 1002.3
СВ 2 20 км 10/6 300 м
[Cu med, cong Ac As]
+22.8 +21.4 92 +30 +30 очень
душно
1019.7 1002.3
Ю 2 20 км 10/4 750 м
[Cu med, cong As trans Ci fib]
+22.2 +21.6 96 +29 +29 очень
душно
1019.6 1002.2
С 3 10 км 10/5 300 м
[Cu med, cong Ac trans Ci fib]
+22.0 +21.1 95 +28 +28 душно 1019.8 1002.3 +26.2
Ю 4 20 км 9/3 750 м
[Cu med, cong Ac trans Ci fib]
+21.8 +21.0 95 +28 +28 душно 1019.8 1002.3
ЮЗ 5 20 км 8/4 600 м
[Cu Sc As trans Ci fib]
+21.6 +20.7 95 +27 +27 душно 1020.0 1002.5
Ю 5 20 км 9/4 750 м
[Cu med, cong As trans Ci fib]
+21.4 +20.6 95 +27 +27 душно 1020.0 1002.5
Ю 6 20 км 5/1 900 м
[Cu med, cong Ac trans Ci fib]
+21.8 +20.8 94 +28 +28 душно 1020.0 1002.5
Ю 5 20 км 4/4 1200 м
[Cu med, cong]
+21.8 +20.8 94 +28 +28 душно 1020.1 1002.6
ЮЗ 4 20 км 8/4 600 м
[Cu med, cong Ac trans]
+21.8 +20.8 94 +28 +28 душно 1019.8 1002.3
ЮЗ 5 20 км 9/8 750 м
[Cu med, cong Ac trans]
+21.0 +19.8 93 +26 +26 душно 1019.7 1002.2
ЮЗ 4 20 км 9/8 600 м
[Cu Sc As trans]
+21.0 +19.8 93 +26 +26 душно 1019.6 1002.1
ЮЗ 3 20 км 10/6 750 м
[Cu med, cong As trans]
+21.0 +19.3 90 +26 +26 душно 1018.6 1001.1
ЮЗ 3 20 км 10/6 750 м
[Cu med, cong As trans]
+21.0 +17.4 80 +25 +25 комфорт 1018.6 1001.1
ЮЗ 4 20 км 8/5 750 м
[Cu med, cong As trans]
+21.0 +19.6 92 +26 +26 душно 1018.6 1001.1
ЮЗ 2 20 км 10/6 600 м
[Cu Sc As trans]
+20.8 +18.7 88 +26 +26 душно 1018.7 1001.1 +20.8
ЮЗ 3 20 км 10/8 600 м
[Sc As trans]
+20.4 +18.0 86 +24 +24 комфорт 1018.6 1001.0
ЮЗ 3 20 км 9/8 750 м
[Sc As op]
+21.0 +18.4 85 +26 +26 душно 1018.6 1001.1
Ю 3 20 км 8/8 600 м
[Cu Sc]
+24.6 +20.6 78 +31 +31 очень
душно
1018.7 1001.4
В 3 20 км 8/8 600 м
[Cu Sc]
+25.2 +20.4 75 +31 +33 очень
душно
1019.3 1002.0
С 3 20 км 6/6 600 м
[Cu Sc]
+25.4 +19.7 71 +31 +34 очень
душно
1019.2 1001.9
З 6 20 км 6/6 600 м
[Cu Sc]
+26.0 +20.3 71 +32 +34 очень
душно
1018.8 1001.6
Ю 5 20 км 3/3 600 м
[Cu med, cong]
+26.0 +20.3 71 +32 +35 очень
душно
1018.1 1000.9
Ю 5 20 км 3/3 600 м
[Cu med, cong]
+26.0 +21.0 74 +33 +34 очень
душно
1018.0 1000.8
Ю 5 20 км 3/3 750 м
[Cu med, cong]
+25.0 +20.8 78 +31 +32 очень
душно
1017.4 1000.2
СЗ 3 20 км 4/4 600 м
[Cu med, cong]
+23.2 +21.2 89 +31 +31 очень
душно
1017.4 1000.0
СВ 2 20 км 5/5 600 м
[Cu med, cong]
+22.2 +20.5 90 +29 +29 очень
душно
1017.5 1000.0
ЮЗ 2 20 км 4/4 600 м
[Cu med, cong]
+22.0 +20.3 90 +28 +28 душно 1017.5 1000.0 +26.2
ЮВ 4 20 км 3/3 600 м
[Cu med, cong]
+21.8 +20.4 92 +28 +28 душно 1017.5 1000.0
С 4 20 км 4/4 600 м
[Cu med, cong]
+21.6 +20.5 93 +27 +27 душно 1017.5 1000.0
Ю 7 20 км 4/4 600 м
[Cu med, cong]
+21.8 +20.1 90 +27 +27 душно 1017.5 1000.0
Ю 7 20 км 4/4 600 м
[Cu med, cong]
+21.8 +20.1 90 +27 +27 душно 1017.2 999.8
Ю 7 20 км 4/4 600 м
[Cu med, cong]
+21.8 +20.4 92 +28 +28 душно 1017.1 999.6
Ю 6 20 км 6/6 450 м
[Cu med, cong]
+21.8 +20.1 90 +27 +27 душно 1016.4 999.0
СЗ 3 20 км 6/6 450 м
[Cu med, cong]
+21.6 +20.5 93 +27 +27 душно 1015.7 998.3
З 4 20 км слаб. дождь 8/8 300 м
[Cu med, cong]
+20.0 +19.1 95 +23 +23 комфорт 1015.5 998.0
З 4 20 км в посл. час дождь 6/6 300 м
[Cu med, cong]
+20.6 +18.8 89 +25 +25 комфорт 1015.5 998.0
З 4 20 км 6/6 450 м
[Cu med, cong]
+20.0 +17.9 88 +23 +23 комфорт 1015.5 998.0
З 4 20 км 9/6 450 м
[Cu med, cong Ci sp]
+20.0 +17.6 86 +23 +23 комфорт 1014.8 997.3
СЗ 4 20 км {дождь} 8/6 450 м
[Cu med, cong Ci sp]
+19.8 +17.4 86 +22 +22 комфорт 1014.5 997.0 +19.6 0.2
Местоположение метеостанции Капо Беллависто (Италия): широта 39.93 долгота 9.72 высота над уровнем моря 150 м.
В архиве по умолчанию представлена погода на Капо Беллависто за последнюю неделю. Архивные данные за месяц целиком и за предыдущие месяцы, начиная с января 2011 года, Вы можете получить, выбрав интересующий диапазон дат из раскрывающегося списка и нажав кнопку "Найти!".
*Определитесь, кто Вы:
Внимание! Время в таблицах - всемирное. Для получения местного времени необходимо прибавить поправку, которая равна 1 ч.
Смотрите также архив погоды в соседних городах и на ближайших метеорологических станциях:
Партнеры нашего сайта:      
Пояснения к столбцам:
  • Ветер - указаны скорость ветра в м/с - средняя за 10 мин, порывы в срок и между сроками (в фигурных скобках) и направление, откуда дует ветер: С - северный,
  • СВ - северо-восточный, В - восточный, ЮВ - юго-восточный, Ю - южный, ЮЗ - юго-западный, З - западный, СЗ - северо-западный.
  • Видимость - горизонтальная дальность видимости в метрах или километрах. При видимости от 1 до 10 км при отсутствии осадков обычно наблюдается дымка, при ухудшении видимости до 1 км и менее - туман. В сухую погоду видимость может ухудшаться дымом, пылью или мглою.
  • Явления - указаны атмосферные явления, наблюдавшиеся в срок или в последний час перед сроком; фигурными скобками обозначены явления, наблюдавшиеся между сроками (за 1-3 часа до срока); квадратными скобками обозначены град или гололедные отложения с указанием их диаметра в мм.
  • Облачность - указаны через наклонную черту общая и нижняя облачность в баллах и высота нижней границы облаков в метрах; квадратными скобками обозначены формы облаков: Ci - перистые, Cs - перисто-слоистые, Cc - перисто-кучевые, Ac - высококучевые, As - высокослоистые, Sc - слоисто-кучевые, Ns - слоисто-дождевые, Cu - кучевые, Cb - кучево-дождевые. Подробнее классификацию облаков см. в Атласе облаков (PDF).
  • T - Температура воздуха - температура, измеренная на высоте 2 м над землей.
  • Td - Температура точки росы - температура, при понижении до которой содержащийся в воздухе водяной пар достигнет насыщения.
  • f - Относительная влажность воздуха - влажноcть воздуха, измеренная на высоте 2 м над землей.
  • Te - Эффективная температура - температура, которую ощущает одетый по сезону человек в тени. Характеристика душности погоды. При расчете учитывается влияние влажности воздуха и скорости ветра на теплоощущения человека.
  • Tes - Эффективная температура на солнце - температура, которую ощущает человек, с поправкой на солнечный нагрев. Характеристика знойности погоды. Зависит от высоты солнца над горизонтом, облачности и скорости ветра. Ночью, в пасмурную погоду, а также при ветре 12 м/с и более поправка равна нулю.
  • P - Атмосферное давление - приведенное к уровню моря атмосферное давление.
  • Po - Атмосферное давление - измеренное на уровне метеостанции атмосферное давление.
  • Tmin - Минимальная температура - минимум температуры воздуха на высоте 2 м над землей.
  • Tmax - Максимальная температура - максимум температуры воздуха на высоте 2 м над землей.
  • R - Количество осадков - Количество выпавших осадков за период времени, мм. При наведении курсора мыши на число - период времени, за который выпало указанное количество осадков.
  • R24 - Количество осадков - Количество выпавших осадков за 24 часа, мм.
  • S - Снежный покров - Высота снежного покрова, см. При наведении курсора мыши на число - состояние снежного покрова и степень покрытия местности в баллах.